Regional Weather Roundup
Issued by NWS Charleston, WV

Home | Current Version | Previous Version | Text Only | Print | Product List | Glossary Off
Versions: 1 2 3 4 5 6 7 8 9 10 11 12 13 14 15 16 17 18 19 20 21 22 23 24 25 26 27

000
ASUS41 KRLX 272210
RWRRLX
West Virginia Regional Weather Roundup
National Weather Service Charleston WV
600 PM EDT MON MAR 27 2017

Note: "fair" indicates few or no clouds below 12,000 feet with no
significant weather and/or obstructions to visibility.

WVZ003-272300-
Northern Panhandle of West Virginia

CITY           SKY/WX    TMP DP  RH WIND       PRES   REMARKS
WHEELING       PTSUNNY   67  48  50 SW12G18   29.90F
$$

WVZ009-272300-
Northwest West Virginia

CITY           SKY/WX    TMP DP  RH WIND       PRES   REMARKS
PARKERSBURG    PTSUNNY   69  54  58 CALM      29.91F
$$

WVZ006-272300-
Western West Virginia

CITY           SKY/WX    TMP DP  RH WIND       PRES   REMARKS
HUNTINGTON     CLOUDY    69  58  67 VRB6      29.88F
$$

WVZ015-272300-
West Central West Virginia

CITY           SKY/WX    TMP DP  RH WIND       PRES   REMARKS
CHARLESTON     CLOUDY    68  53  58 S10       29.91F
$$

WVZ022-031-272300-
North Central West Virginia

CITY           SKY/WX    TMP DP  RH WIND       PRES   REMARKS
CLARKSBURG     PTSUNNY   70  52  52 VRB5      29.92F
MORGANTOWN     MOSUNNY   70  50  49 VRB6      29.93F
$$

WVZ025-035-042-045-272300-
Southern West Virginia

CITY           SKY/WX    TMP DP  RH WIND       PRES   REMARKS
BECKLEY        LGT RAIN  58  52  80 N10       29.98R
LOGAN          CLOUDY    63  57  82 CALM      29.93F
BLUEFIELD      CLOUDY    69  41  36 W14       29.98F
LEWISBURG      PTSUNNY   68  49  50 CALM      29.96F
$$

WVZ047-272300-
Northern Mountains of West Virginia

CITY           SKY/WX    TMP DP  RH WIND       PRES   REMARKS
ELKINS         CLOUDY    69  47  45 SW9       29.96F
$$

WVZ052-272300-
Eastern Panhandle of West Virginia

CITY           SKY/WX    TMP DP  RH WIND       PRES   REMARKS
MARTINSBURG    SUNNY     70  56  61 SE8       29.91F
PETERSBURG     CLOUDY    74  52  45 SW5       29.92S
$$




USA.gov is the U.S. government's official web portal to all federal, state and local government web resources and services.